Weather History for KLOR - December, 2013

Change the Weather History Date:

Saturday, December 14, 2013

  Actual Average (KDHN) Record (KDHN)
Temperature  
Mean Temperature 57 °F 51 °F  
Max Temperature 69 °F 63 °F 77 °F (1967)
Min Temperature 45 °F 40 °F 19 °F (2010)
Degree Days  
Heating Degree Days 8 14  
Month to date heating degree days 176  
Since 1 July heating degree days 453  
Growing Degree Days 7 (Base 50)    
Moisture  
Dew Point 61 °F    
Average Humidity 91    
Maximum Humidity 100    
Minimum Humidity 83    
Precipitation  
Precipitation 0.53 in 0.15 in 1.89 in (1943)
Month to date precipitation 2.43  
Year to date precipitation 52.01  
Sea Level Pressure  
Sea Level Pressure 29.89 in    
Wind  
Wind Speed 5 mph (SW)    
Max Wind Speed 18 mph    
Max Gust Speed 28 mph    
Visibility 6 miles    
Events Fog , Rain    
T = Trace of Precipitation, MM = Missing Value Source: NWS Daily Summary

Daily Weather History Graph

Daily Weather History Graph

Search for Another Location

Airport or City:

Trip Planner

Search our weather history database for the weather conditions in past years. The results will help you decide how hot, cold, wet, or windy it might be!

Date:

Astronomy

Dec. 14, 2013 Rise Set
Actual Time 6:34 AM CST 4:41 PM CST
Civil Twilight 6:07 AM CST 5:08 PM CST
Nautical Twilight 5:36 AM CST 5:38 PM CST
Astronomical Twilight 5:07 AM CST 6:08 PM CST
Moon 2:57 PM CST (12/14) 4:00 AM CST (12/14)
Length of Visible Light 11h 01m
Length of Day
10h 07m
Waxing Gibbous, 94% of the Moon is Illuminated
Dec 14
Waxing Gibbous
Dec 17
Full
Dec 25
Last Quarter
Jan 1
New
Jan 7
First Quarter

Hourly Weather History & Observations

Time (CST) Temp. Dew Point Humidity Pressure Visibility Wind Dir Wind Speed Gust Speed Precip Events Conditions
12:53 AM 45.0 °F 43.0 °F 93% 30.07 in 10.0 mi Calm Calm - N/A   Clear
1:53 AM 50.0 °F 46.0 °F 86% 30.07 in 10.0 mi NE 4.6 mph - N/A   Mostly Cloudy
2:53 AM 52.0 °F 48.0 °F 86% 30.04 in 10.0 mi Calm Calm - N/A   Overcast
3:53 AM 54.0 °F 48.9 °F 83% 29.99 in 10.0 mi Variable 3.5 mph - N/A   Overcast
4:53 AM 55.0 °F 51.1 °F 86% 29.98 in 10.0 mi ESE 3.5 mph - N/A   Overcast
5:53 AM 57.0 °F 52.0 °F 83% 29.97 in 10.0 mi SSE 4.6 mph - N/A   Overcast
6:51 AM 57.2 °F 53.6 °F 88% 29.96 in 9.0 mi SSE 6.9 mph - N/A   Overcast
6:53 AM 57.9 °F 54.0 °F 87% 29.96 in 9.0 mi Variable 4.6 mph - N/A   Mostly Cloudy
7:53 AM 60.1 °F 55.9 °F 86% 29.96 in 9.0 mi Variable 6.9 mph - N/A   Overcast
8:15 AM 60.8 °F 57.2 °F 88% 29.95 in 8.0 mi SSE 4.6 mph - N/A   Overcast
8:53 AM 63.0 °F 57.9 °F 84% 29.94 in 8.0 mi South 9.2 mph - N/A   Overcast
9:53 AM 64.9 °F 60.1 °F 84% 29.93 in 8.0 mi South 6.9 mph - N/A   Overcast
10:53 AM 66.0 °F 62.1 °F 87% 29.90 in 7.0 mi South 6.9 mph - N/A   Overcast
11:42 AM 66.2 °F 64.4 °F 94% 29.86 in 5.0 mi SSE 4.6 mph - 0.00 in   Overcast
11:49 AM 66.2 °F 64.4 °F 94% 29.86 in 5.0 mi South 9.2 mph - 0.00 in Rain Light Rain
11:53 AM 66.9 °F 64.0 °F 90% 29.85 in 5.0 mi South 6.9 mph - 0.00 in Rain Light Rain
12:02 PM 68.0 °F 64.4 °F 88% 29.84 in 7.0 mi South 10.4 mph - 0.00 in   Overcast
12:35 PM 69.8 °F 64.4 °F 83% 29.81 in 9.0 mi SSW 16.1 mph 23.0 mph 0.00 in   Overcast
12:49 PM 69.8 °F 64.4 °F 83% 29.85 in 1.8 mi West 18.4 mph 27.6 mph 0.07 in Rain Light Rain
12:53 PM 68.0 °F 64.9 °F 90% 29.83 in 0.2 mi SW 12.7 mph 27.6 mph 0.26 in Fog , Rain Heavy Rain
1:06 PM 66.2 °F 64.4 °F 94% 29.82 in 0.8 mi SSW 4.6 mph - 0.12 in Rain Heavy Rain
1:15 PM 66.2 °F 64.4 °F 94% 29.83 in 1.5 mi SW 6.9 mph - 0.15 in Rain Heavy Rain
1:21 PM 66.2 °F 64.4 °F 94% 29.83 in 0.8 mi Variable 6.9 mph - 0.22 in Rain Heavy Rain
1:32 PM 68.0 °F 66.2 °F 94% 29.82 in 2.0 mi SW 6.9 mph - 0.25 in Rain Light Rain
1:39 PM 68.0 °F 66.2 °F 94% 29.82 in 10.0 mi SW 5.8 mph - 0.25 in   Mostly Cloudy
1:53 PM 68.0 °F 66.0 °F 93% 29.82 in 10.0 mi WSW 4.6 mph - 0.25 in   Mostly Cloudy
2:53 PM 69.1 °F 66.0 °F 90% 29.83 in 10.0 mi West 6.9 mph - N/A   Mostly Cloudy
3:53 PM 68.0 °F 66.0 °F 93% 29.83 in 9.0 mi SSW 3.5 mph - N/A   Partly Cloudy
4:53 PM 68.0 °F 66.0 °F 93% 29.84 in 7.0 mi Calm Calm - N/A   Clear
5:19 PM 64.4 °F 64.4 °F 100% 29.84 in 1.5 mi Calm Calm - N/A   Clear
5:27 PM 64.4 °F 64.4 °F 100% 29.85 in 0.2 mi Calm Calm - N/A Fog Fog
5:39 PM 64.4 °F 64.4 °F 100% 29.85 in 0.2 mi Calm Calm - N/A Fog Fog
5:53 PM 66.0 °F 64.9 °F 96% 29.85 in 0.5 mi Calm Calm - N/A Fog Fog
6:02 PM 66.2 °F 64.4 °F 94% 29.85 in 1.5 mi Calm Calm - 0.00 in Rain Light Rain
6:12 PM 64.4 °F 64.4 °F 100% 29.86 in 3.0 mi Calm Calm - 0.00 in   Mostly Cloudy
6:18 PM 64.4 °F 64.4 °F 100% 29.86 in 1.8 mi Calm Calm - 0.00 in   Mostly Cloudy
6:33 PM 64.4 °F 64.4 °F 100% 29.87 in 2.0 mi NNW 4.6 mph - 0.00 in   Mostly Cloudy
6:41 PM 66.2 °F 66.2 °F 100% 29.86 in 7.0 mi North 6.9 mph - 0.00 in   Mostly Cloudy
6:53 PM 66.0 °F 64.9 °F 96% 29.87 in 8.0 mi NNW 3.5 mph - 0.00 in   Overcast
7:43 PM 64.4 °F 62.6 °F 94% 29.88 in 9.0 mi North 8.1 mph - N/A   Mostly Cloudy
7:53 PM 64.9 °F 62.1 °F 90% 29.87 in 9.0 mi North 5.8 mph - N/A   Mostly Cloudy
8:53 PM 64.0 °F 61.0 °F 90% 29.90 in 9.0 mi NW 3.5 mph - 0.00 in   Overcast
9:53 PM 63.0 °F 59.0 °F 87% 29.92 in 10.0 mi North 5.8 mph - N/A   Overcast
10:53 PM 61.0 °F 55.9 °F 83% 29.89 in 10.0 mi Calm Calm - 0.01 in   Overcast
11:53 PM 59.0 °F 57.0 °F 93% 29.90 in 4.0 mi West 4.6 mph - 0.01 in Rain Light Rain